This is the latest recevied weather packets stored in our database for station/object F5OZP-13. If no packets are shown the sender has not sent any weather packets the latest 10 day(s).
| Time | Temp. | Humidity | Pressure | Rain* | Wind** | Luminosity | Snow |
|---|---|---|---|---|---|---|---|
| 1777725022 | 22.78° C | 99% | 1017.5 hPa | - | - | 0 W/m² | - |
| 1777724706 | 22.78° C | 99% | 1017.4 hPa | - | - | 0 W/m² | - |
| 1777724397 | 21.67° C | 99% | 1017.4 hPa | - | - | 0 W/m² | - |
| 1777724090 | 21.67° C | 99% | 1017.5 hPa | - | - | 0 W/m² | - |
| 1777723781 | 21.67° C | 99% | 1017.5 hPa | - | - | 0 W/m² | - |
| 1777723478 | 22.22° C | 99% | 1017.5 hPa | - | - | 0 W/m² | - |
| 1777723178 | 22.22° C | 99% | 1017.6 hPa | - | - | 0 W/m² | - |
| 1777722861 | 22.22° C | 99% | 1017.5 hPa | - | - | 0 W/m² | - |
| 1777722553 | 21.67° C | 99% | 1017.7 hPa | - | - | 0 W/m² | - |
| 1777722247 | 22.78° C | 99% | 1017.7 hPa | - | - | 0 W/m² | - |
| 1777721937 | 22.22° C | 99% | 1017.8 hPa | - | - | 0 W/m² | - |
| 1777721629 | 20° C | 99% | 1017.9 hPa | - | - | 11 W/m² | - |
| 1777721329 | 19.44° C | 99% | 1018 hPa | - | - | 0 W/m² | - |
| 1777721012 | 20° C | 99% | 1018.1 hPa | - | - | 0 W/m² | - |
| 1777720704 | 20.56° C | 99% | 1018.2 hPa | - | - | 0 W/m² | - |
| 1777720396 | 21.11° C | 99% | 1018.4 hPa | - | - | 0 W/m² | - |
| 1777720088 | 21.67° C | 99% | 1018.3 hPa | - | - | 0 W/m² | - |
| 1777719780 | 22.22° C | 99% | 1018.3 hPa | - | - | 0 W/m² | - |
| 1777719480 | 21.67° C | 99% | 1018.2 hPa | - | - | 0 W/m² | - |
| 1777719163 | 22.78° C | 99% | 1018.1 hPa | - | - | 0 W/m² | - |
| 1777718855 | 22.78° C | 99% | 1018.1 hPa | - | - | 0 W/m² | - |
| 1777718548 | 22.78° C | 99% | 1018.1 hPa | - | - | 1 W/m² | - |
| 1777718239 | 21.67° C | 99% | 1018 hPa | - | - | 0 W/m² | - |
| 1777717931 | 21.67° C | 99% | 1018 hPa | - | - | 0 W/m² | - |
| 1777717631 | 20.56° C | 99% | 1018 hPa | - | - | 0 W/m² | - |
* Rain since midnight (hover to see other rain measurements)
** Current wind speed in m/s (hover to see current wind gust speed)